Zurück zum Katalog

STARLINK-6216

AktivKommunikationVLEO
NORAD 56893·PAYLOAD·🇺🇸 United States

Gestartet Jun 12, 2023 von Cape Canaveral Space Force Station

Loading…

Nächste Überflüge (nächste 24 Stunden)

TLE

AktuellSource: CelesTrak SupGP

Epoche: Sep 15, 2026, 01:46 UTC

1 56893C 23083T   26258.07409722  .00015287  00000+0  55315-3 0  2583
2 56893  43.0004  95.4608 0001373 268.1329 194.4176 15.27603709    14

Verfolge STARLINK-6216 in Echtzeit mit AllMySat

Download on the App Store